Weather History for Greenville, SC

Change the Weather History Date:

Sunday, October 28, 2012

  Actual Average (KGSP) Record (KGSP)
Temperature  
Mean Temperature 60 °F 58 °F  
Max Temperature 71 °F 69 °F 85 °F (1991)
Min Temperature 50 °F 47 °F 27 °F (1914)
Degree Days  
Heating Degree Days 4 8  
Month to date heating degree days 128  
Since 1 July heating degree days 145  
Cooling Degree Days 0 1  
Month to date cooling degree days 47  
Year to date cooling degree days 1709  
Growing Degree Days 10 (Base 50)    
Moisture  
Dew Point 44 °F    
Average Humidity 65    
Maximum Humidity 88    
Minimum Humidity 38    
Precipitation  
Precipitation 0.00 in 0.10 in 1.13 in (1885)
Month to date precipitation 3.13  
Year to date precipitation 39.07  
Snow  
Snow 0.00 in 0.00 in 0.00 in ()
Month to date snowfall 0.0  
Since 1 July snowfall 0.0  
Since 1 September snowfall 0.0  
Snow Depth -    
Sea Level Pressure  
Sea Level Pressure 29.74 in    
Wind  
Wind Speed 5 mph (North)    
Max Wind Speed 16 mph    
Max Gust Speed 24 mph    
Visibility 10 miles    
Events Rain    
T = Trace of Precipitation, MM = Missing Value Source: NWS Daily Summary

Daily Weather History Graph

Daily Weather History Graph

Search for Another Location

Airport:

Trip Planner

Search our weather history database for the weather conditions in past years. The results will help you decide how hot, cold, wet, or windy it might be!

Date:

Astronomy

Oct. 28, 2012 Rise Set
Actual Time 7:46 AM EDT 6:39 PM EDT
Civil Twilight 7:20 AM EDT 7:05 PM EDT
Nautical Twilight 6:51 AM EDT 7:34 PM EDT
Astronomical Twilight 6:21 AM EDT 8:04 PM EDT
Moon 5:56 PM EDT 6:39 AM EDT
Length of Visible Light 11h 44m
Length of Day
10h 52m
Waxing Gibbous, 99% of the Moon is Illuminated
Oct 28
Waxing Gibbous
Oct 29
Full
Nov 6
Last Quarter
Nov 13
New
Nov 20
First Quarter

Hourly Weather History & Observations

Time (EDT) Temp. Dew Point Humidity Pressure Visibility Wind Dir Wind Speed Gust Speed Precip Events Conditions
12:15 AM 59.0 °F 50.0 °F 72% 29.79 in 10.0 mi North 3.5 mph - N/A   Clear
12:35 AM 59.0 °F 50.0 °F 72% 29.79 in 10.0 mi North 3.5 mph - N/A   Clear
12:55 AM 59.0 °F 50.0 °F 72% 29.78 in 10.0 mi North 3.5 mph - N/A   Clear
1:15 AM 59.0 °F 50.0 °F 72% 29.78 in 10.0 mi North 4.6 mph - N/A   Scattered Clouds
1:35 AM 59.0 °F 48.2 °F 67% 29.78 in 10.0 mi NNE 5.8 mph - N/A   Scattered Clouds
1:55 AM 59.0 °F 48.2 °F 67% 29.77 in 10.0 mi North 6.9 mph - N/A   Scattered Clouds
2:15 AM 59.0 °F 48.2 °F 67% 29.76 in 10.0 mi North 5.8 mph - N/A   Clear
2:35 AM 59.0 °F 48.2 °F 67% 29.76 in 10.0 mi North 3.5 mph - N/A   Clear
2:55 AM 57.2 °F 46.4 °F 67% 29.75 in 10.0 mi NNW 4.6 mph - N/A   Clear
3:15 AM 55.4 °F 46.4 °F 72% 29.74 in 10.0 mi NNW 3.5 mph - N/A   Clear
3:35 AM 55.4 °F 46.4 °F 72% 29.73 in 10.0 mi NNW 5.8 mph - N/A   Clear
3:55 AM 55.4 °F 46.4 °F 72% 29.73 in 10.0 mi NNW 3.5 mph - N/A   Clear
4:15 AM 55.4 °F 46.4 °F 72% 29.73 in 10.0 mi NNW 3.5 mph - N/A   Clear
4:35 AM 55.4 °F 46.4 °F 72% 29.73 in 10.0 mi North 5.8 mph - N/A   Clear
4:55 AM 55.4 °F 46.4 °F 72% 29.73 in 10.0 mi Calm Calm - N/A   Clear
5:15 AM 55.4 °F 46.4 °F 72% 29.73 in 10.0 mi NNE 3.5 mph - N/A   Clear
5:35 AM 53.6 °F 46.4 °F 77% 29.74 in 10.0 mi Calm Calm - N/A   Clear
5:55 AM 53.6 °F 46.4 °F 77% 29.74 in 10.0 mi North 3.5 mph - N/A   Clear
6:15 AM 53.6 °F 46.4 °F 77% 29.73 in 10.0 mi Calm Calm - N/A   Clear
6:35 AM 53.6 °F 46.4 °F 77% 29.74 in 10.0 mi Calm Calm - N/A   Clear
6:47 AM 55.4 °F 46.4 °F 72% 29.74 in 10.0 mi Calm Calm - N/A   Clear
7:47 AM 53.6 °F 46.4 °F 77% 29.75 in 10.0 mi NNW 3.5 mph - N/A   Clear
8:47 AM 55.4 °F 46.4 °F 72% 29.75 in 10.0 mi NW 3.5 mph - N/A   Clear
9:47 AM 60.8 °F 48.2 °F 63% 29.75 in 10.0 mi NW 5.8 mph - N/A   Clear
10:47 AM 64.4 °F 46.4 °F 52% 29.74 in 10.0 mi NNE 4.6 mph - N/A   Clear
11:47 AM 68.0 °F 44.6 °F 43% 29.74 in 10.0 mi NNE 8.1 mph - N/A   Clear
12:47 PM 69.8 °F 46.4 °F 43% 29.71 in 10.0 mi NE 4.6 mph - N/A   Scattered Clouds
1:47 PM 71.6 °F 44.6 °F 38% 29.69 in 10.0 mi NE 5.8 mph - N/A   Mostly Cloudy
2:47 PM 69.8 °F 46.4 °F 43% 29.68 in 10.0 mi NNW 4.6 mph - N/A   Mostly Cloudy
3:49 PM 59.0 °F 55.4 °F 88% 29.70 in 10.0 mi NW 4.6 mph - N/A Rain Light Rain
4:47 PM 57.2 °F 48.2 °F 72% 29.71 in 10.0 mi North 9.2 mph - N/A   Overcast
5:47 PM 55.4 °F 44.6 °F 67% 29.70 in 10.0 mi North 9.2 mph 18.4 mph N/A   Mostly Cloudy
6:47 PM 53.6 °F 42.8 °F 67% 29.71 in 10.0 mi NNW 16.1 mph - N/A   Mostly Cloudy
7:47 PM 53.6 °F 41.0 °F 62% 29.73 in 10.0 mi North 11.5 mph 19.6 mph N/A   Mostly Cloudy
8:48 PM 51.8 °F 37.4 °F 58% 29.74 in 10.0 mi North 8.1 mph 24.2 mph N/A   Mostly Cloudy
9:15 PM 51.8 °F 35.6 °F 54% 29.75 in 10.0 mi North 6.9 mph 16.1 mph N/A   Clear
9:35 PM 50.0 °F 33.8 °F 54% 29.75 in 10.0 mi North 5.8 mph 16.1 mph N/A   Clear
9:55 PM 50.0 °F 33.8 °F 54% 29.75 in 10.0 mi NNW 8.1 mph 16.1 mph N/A   Scattered Clouds
10:15 PM 50.0 °F 33.8 °F 54% 29.75 in 10.0 mi North 10.4 mph 16.1 mph N/A   Scattered Clouds
10:35 PM 50.0 °F 33.8 °F 54% 29.74 in 10.0 mi North 8.1 mph 17.3 mph N/A   Clear
10:55 PM 50.0 °F 33.8 °F 54% 29.75 in 10.0 mi NNW 3.5 mph - N/A   Clear
11:15 PM 50.0 °F 33.8 °F 54% 29.75 in 10.0 mi North 4.6 mph - N/A   Clear
11:35 PM 50.0 °F 33.8 °F 54% 29.75 in 10.0 mi North 4.6 mph - N/A   Clear
11:55 PM 50.0 °F 33.8 °F 54% 29.75 in 10.0 mi North 4.6 mph - N/A   Clear